DB0BIN Weather Reports


time (UTC)temp
F
wind
direction
speed
knots
gust
knots
rain 1hr
in
rain 24hr
in
rain mn
in
humidity
%
barometer
mb
20260506185005 49 180 0.0 0.0 0.00 0.33 0.00 1007.4
20260506184505 49 180 0.0 0.0 0.00 0.33 0.00 1007.4
20260506184005 49 180 0.0 0.0 0.00 0.33 0.00 1007.2
20260506183505 49 180 0.0 0.0 0.00 0.33 0.00 1007.2
20260506183006 49 180 0.0 0.0 0.00 0.33 0.00 1007.2
20260506182505 49 180 0.0 0.0 0.00 0.33 0.00 1007.2
20260506182005 49 180 0.0 0.0 0.00 0.33 0.00 1007.2
20260506181505 49 180 0.0 0.0 0.00 0.33 0.00 1007.1
20260506181005 49 180 0.0 0.0 0.00 0.33 0.00 1007.1
20260506180505 49 180 0.0 0.0 0.00 0.33 0.00 1007.1
20260506180006 49 180 0.0 0.0 0.00 0.33 0.00 1007.0
20260506175505 49 180 0.0 0.0 0.00 0.33 0.00 1007.0
20260506175005 49 180 0.0 0.0 0.00 0.33 0.00 1007.0
20260506174505 49 180 0.0 0.0 0.00 0.32 0.00 1006.9
20260506174005 49 180 0.0 0.0 0.00 0.32 0.00 1006.9
20260506173505 49 180 0.0 0.0 0.00 0.32 0.00 1006.9
20260506173005 49 180 0.0 0.0 0.00 0.32 0.00 1006.7
20260506172505 49 180 0.0 0.0 0.00 0.32 0.00 1006.7
20260506172005 49 180 0.0 0.0 0.00 0.32 0.00 1006.7
20260506171505 49 180 0.0 0.0 0.00 0.32 0.00 1006.7
20260506171005 49 180 0.0 0.0 0.00 0.32 0.00 1006.7
20260506170505 49 180 0.0 0.0 0.00 0.32 0.00 1006.6
20260506170005 49 180 0.0 0.0 0.00 0.32 0.00 1006.6
20260506165505 49 180 0.0 0.0 0.00 0.32 0.00 1006.6
20260506165005 49 180 0.0 0.0 0.00 0.32 0.00 1006.6
20260506164505 49 180 0.0 0.0 0.00 0.32 0.00 1006.6
20260506164005 50 180 0.0 0.0 0.00 0.32 0.00 1006.6
20260506163505 50 180 0.0 0.0 0.00 0.32 0.00 1006.7
20260506163005 50 180 0.0 0.0 0.00 0.32 0.00 1006.6
20260506162505 50 180 0.0 0.0 0.00 0.32 0.00 1006.7
20260506162005 50 180 0.0 0.0 0.00 0.32 0.00 1006.7
20260506161505 51 180 0.0 0.0 0.00 0.32 0.00 1006.7
20260506161005 51 180 0.0 0.0 0.00 0.32 0.00 1006.7
20260506160505 51 180 0.0 0.0 0.00 0.32 0.00 1006.6
20260506160005 51 180 0.0 0.0 0.00 0.32 0.00 1006.7
20260506155505 51 180 0.0 0.0 0.00 0.32 0.00 1006.7
20260506155005 51 180 0.0 0.0 0.00 0.32 0.00 1006.6
20260506154505 52 180 0.0 0.0 0.00 0.32 0.00 1006.6
20260506154005 52 180 0.0 0.0 0.00 0.32 0.00 1006.5
20260506153505 52 180 0.0 0.0 0.00 0.31 0.00 1006.2
20260506153005 53 180 0.0 0.0 0.00 0.28 0.00 1006.2
20260506152505 53 180 0.0 0.0 0.00 0.24 0.00 1006.2
20260506152005 53 180 0.0 0.0 0.00 0.23 0.00 1006.2
20260506151505 53 180 0.0 0.0 0.00 0.21 0.00 1006.2
20260506151005 53 180 0.0 0.0 0.00 0.20 0.00 1006.1
20260506150505 53 180 0.0 0.0 0.00 0.19 0.00 1006.1
20260506150005 53 180 0.0 0.0 0.00 0.18 0.00 1006.0
20260506145505 53 180 0.0 0.0 0.00 0.17 0.00 1006.0
20260506145005 53 180 0.0 0.0 0.00 0.17 0.00 1006.0
20260506144505 53 180 0.0 0.0 0.00 0.16 0.00 1005.9
20260506144005 54 180 0.0 0.0 0.00 0.16 0.00 1005.9
20260506143505 53 180 0.0 0.0 0.00 0.16 0.00 1005.9
20260506143005 53 180 0.0 0.0 0.00 0.16 0.00 1005.7
20260506142505 54 180 0.0 0.0 0.00 0.16 0.00 1005.7
20260506142005 54 180 0.0 0.0 0.00 0.16 0.00 1005.7
20260506141505 54 180 0.0 0.0 0.00 0.16 0.00 1005.7
20260506141005 53 180 0.0 0.0 0.00 0.16 0.00 1005.7
20260506140505 54 180 0.0 0.0 0.00 0.16 0.00 1005.6
20260506140005 54 180 0.0 0.0 0.00 0.16 0.00 1005.5
20260506135505 54 180 0.0 0.0 0.00 0.16 0.00 1005.5
20260506135005 54 180 0.0 0.0 0.00 0.16 0.00 1005.6
20260506134505 54 180 0.0 0.0 0.00 0.16 0.00 1005.6
20260506134005 54 180 0.0 0.0 0.00 0.16 0.00 1005.5
20260506133505 54 180 0.0 0.0 0.00 0.16 0.00 1005.5
20260506133005 54 180 0.0 0.0 0.00 0.16 0.00 1005.4
20260506132505 54 180 0.0 0.0 0.00 0.16 0.00 1005.4
20260506132005 54 180 0.0 0.0 0.00 0.16 0.00 1005.4
20260506131505 54 180 0.0 0.0 0.00 0.16 0.00 1005.4
20260506131005 53 180 0.0 0.0 0.00 0.16 0.00 1005.4
20260506130505 54 180 0.0 0.0 0.00 0.16 0.00 1005.2
20260506130005 53 180 0.0 0.0 0.00 0.16 0.00 1005.2
20260506125505 53 180 0.0 0.0 0.00 0.16 0.00 1005.4
20260506125005 53 180 0.0 0.0 0.00 0.16 0.00 1005.4
20260506124505 53 180 0.0 0.0 0.00 0.16 0.00 1005.2
20260506124005 53 180 0.0 0.0 0.00 0.16 0.00 1005.2
20260506123505 53 180 0.0 0.0 0.00 0.15 0.00 1005.2
20260506123005 53 180 0.0 0.0 0.00 0.15 0.00 1005.1
20260506122505 53 180 0.0 0.0 0.00 0.12 0.00 1005.1
20260506122005 53 180 0.0 0.0 0.00 0.12 0.00 1005.2
20260506121505 53 180 0.0 0.0 0.00 0.12 0.00 1005.1
20260506121005 53 180 0.0 0.0 0.00 0.12 0.00 1004.7
20260506120505 53 180 0.0 0.0 0.00 0.12 0.00 1004.7
20260506120005 53 180 0.0 0.0 0.00 0.12 0.00 1004.7
20260506115505 53 180 0.0 0.0 0.00 0.12 0.00 1004.6
20260506115005 52 180 0.0 0.0 0.00 0.11 0.00 1004.6
20260506114505 53 180 0.0 0.0 0.00 0.10 0.00 1004.7
20260506114005 53 180 0.0 0.0 0.00 0.09 0.00 1004.7
20260506113505 54 180 0.0 0.0 0.00 0.08 0.00 1004.7
20260506113005 56 180 0.0 0.0 0.00 0.00 0.00 1004.6
20260506112505 57 180 0.0 0.0 0.00 0.00 0.00 1004.6
20260506112005 59 180 0.0 0.0 0.00 0.00 0.00 1004.5
20260506111505 60 180 0.0 0.0 0.00 0.00 0.00 1004.6
20260506111005 60 180 0.0 0.0 0.00 0.00 0.00 1004.5
20260506110505 60 180 0.0 0.0 0.00 0.00 0.00 1004.5
20260506110005 60 180 0.0 0.0 0.00 0.00 0.00 1004.5
20260506105505 60 180 0.0 0.0 0.00 0.00 0.00 1004.5
20260506105005 60 180 0.0 0.0 0.00 0.00 0.00 1004.6
20260506104505 60 180 0.0 0.0 0.00 0.00 0.00 1004.6
20260506104005 60 180 0.0 0.0 0.00 0.00 0.00 1004.7
20260506103505 60 180 0.0 0.0 0.00 0.00 0.00 1004.7
20260506103005 60 180 0.0 0.0 0.00 0.00 0.00 1004.7
20260506102505 61 180 0.0 0.0 0.00 0.00 0.00 1004.7
20260506102005 61 180 0.0 0.0 0.00 0.00 0.00 1004.7
20260506101505 60 180 0.0 0.0 0.00 0.00 0.00 1004.7
20260506101005 60 180 0.0 0.0 0.00 0.00 0.00 1004.7
20260506100505 60 180 0.0 0.0 0.00 0.00 0.00 1004.7
20260506100005 60 180 0.0 0.0 0.00 0.00 0.00 1004.7
20260506095505 60 180 0.0 0.0 0.00 0.00 0.00 1005.0
20260506095005 60 180 0.0 0.0 0.00 0.35 0.00 1005.0
20260506094505 61 180 0.0 0.0 0.00 0.35 0.00 1005.0
20260506094005 61 180 0.0 0.0 0.00 0.35 0.00 1005.0
20260506093505 61 180 0.0 0.0 0.00 0.35 0.00 1005.0
20260506093005 61 180 0.0 0.0 0.00 0.35 0.00 1005.0
20260506092505 61 180 0.0 0.0 0.00 0.35 0.00 1005.0
20260506092005 61 180 0.0 0.0 0.00 0.35 0.00 1005.0
20260506091505 61 180 0.0 0.0 0.00 0.35 0.00 1004.7
20260506091005 60 180 0.0 0.0 0.00 0.35 0.00 1005.0
20260506090505 60 180 0.0 0.0 0.00 0.35 0.00 1004.7
20260506090005 60 180 0.0 0.0 0.00 0.35 0.00 1004.7
20260506085505 60 180 0.0 0.0 0.00 0.35 0.00 1005.0
20260506085005 59 180 0.0 0.0 0.00 0.35 0.00 1004.7
20260506084505 59 180 0.0 0.0 0.00 0.35 0.00 1004.7
20260506084005 58 180 0.0 0.0 0.00 0.35 0.00 1004.7
20260506083505 58 180 0.0 0.0 0.00 0.35 0.00 1004.7
20260506083005 57 180 0.0 0.0 0.00 0.35 0.00 1004.7
20260506082505 57 180 0.0 0.0 0.00 0.35 0.00 1004.7
20260506082005 57 180 0.0 0.0 0.00 0.35 0.00 1004.7
20260506081505 57 180 0.0 0.0 0.00 0.35 0.00 1004.7
20260506081005 56 180 0.0 0.0 0.00 0.35 0.00 1004.7
20260506080505 56 180 0.0 0.0 0.00 0.35 0.00 1005.0
20260506073505 55 180 0.0 0.0 0.00 0.35 0.00 1005.0
20260506073005 55 180 0.0 0.0 0.00 0.35 0.00 1005.1
20260506072505 55 180 0.0 0.0 0.00 0.35 0.00 1005.1
20260506072005 55 180 0.0 0.0 0.00 0.35 0.00 1005.0
20260506071505 54 180 0.0 0.0 0.00 0.35 0.00 1005.0
20260506071005 54 180 0.0 0.0 0.00 0.35 0.00 1005.1
20260506070505 54 180 0.0 0.0 0.00 0.35 0.00 1005.0
20260506062505 50 180 0.0 0.0 0.00 0.35 0.00 1004.7
20260506062005 50 180 0.0 0.0 0.00 0.35 0.00 1004.7
20260506061505 49 180 0.0 0.0 0.00 0.35 0.00 1004.7
20260506061005 49 180 0.0 0.0 0.00 0.35 0.00 1004.7
20260506060505 49 180 0.0 0.0 0.00 0.35 0.00 1005.0
20260506051005 47 180 0.0 0.0 0.00 0.35 0.00 1005.2
20260506050505 47 180 0.0 0.0 0.00 0.35 0.00 1005.2
20260506045005 47 180 0.0 0.0 0.00 0.35 0.00 1005.2
20260506044505 47 180 0.0 0.0 0.00 0.35 0.00 1005.4
20260506044005 47 180 0.0 0.0 0.00 0.35 0.00 1005.2
20260506043505 48 180 0.0 0.0 0.00 0.35 0.00 1005.4
20260506043005 47 180 0.0 0.0 0.00 0.35 0.00 1005.5
20260506042505 47 180 0.0 0.0 0.00 0.35 0.00 1005.4
20260506042005 48 180 0.0 0.0 0.00 0.35 0.00 1005.4
20260506041505 47 180 0.0 0.0 0.00 0.35 0.00 1005.4
20260506041005 47 180 0.0 0.0 0.00 0.35 0.00 1005.2
20260506040505 47 180 0.0 0.0 0.00 0.35 0.00 1005.4
20260506040005 48 180 0.0 0.0 0.00 0.35 0.00 1005.2
20260506035505 48 180 0.0 0.0 0.00 0.35 0.00 1005.2
20260506035005 47 180 0.0 0.0 0.00 0.35 0.00 1005.4
20260506034505 48 180 0.0 0.0 0.00 0.35 0.00 1005.5
20260506034005 48 180 0.0 0.0 0.00 0.35 0.00 1005.5
20260506033505 47 180 0.0 0.0 0.00 0.35 0.00 1005.5
20260506033005 48 180 0.0 0.0 0.00 0.35 0.00 1005.6
20260506032505 48 180 0.0 0.0 0.00 0.35 0.00 1005.6
20260506032005 48 180 0.0 0.0 0.00 0.35 0.00 1005.6
20260506031505 48 180 0.0 0.0 0.00 0.35 0.00 1005.7
20260506031005 48 180 0.0 0.0 0.00 0.35 0.00 1005.7
20260506030505 48 180 0.0 0.0 0.00 0.35 0.00 1005.7
20260506030005 48 180 0.0 0.0 0.00 0.35 0.00 1005.9
20260506025505 48 180 0.0 0.0 0.00 0.35 0.00 1005.7
20260506025005 48 180 0.0 0.0 0.00 0.35 0.00 1005.9
20260506024506 48 180 0.0 0.0 0.00 0.35 0.00 1006.0
20260506024005 48 180 0.0 0.0 0.00 0.35 0.00 1006.0
20260506023505 48 180 0.0 0.0 0.00 0.35 0.00 1006.0
20260506023005 48 180 0.0 0.0 0.00 0.35 0.00 1006.0
20260506022505 48 180 0.0 0.0 0.00 0.35 0.00 1006.0
20260506022005 48 180 0.0 0.0 0.00 0.35 0.00 1006.0
20260506021505 48 180 0.0 0.0 0.00 0.35 0.00 1006.0
20260506021005 48 180 0.0 0.0 0.00 0.35 0.00 1006.1
20260506020505 49 180 0.0 0.0 0.00 0.35 0.00 1006.1
20260506020005 48 180 0.0 0.0 0.00 0.35 0.00 1006.1
20260506015505 49 180 0.0 0.0 0.00 0.35 0.00 1006.2
20260506015005 49 180 0.0 0.0 0.00 0.35 0.00 1006.2
20260506014505 49 180 0.0 0.0 0.00 0.35 0.00 1006.2
20260506014005 49 180 0.0 0.0 0.00 0.35 0.00 1006.2
20260506013505 49 180 0.0 0.0 0.00 0.35 0.00 1006.6
20260506013005 49 180 0.0 0.0 0.00 0.35 0.00 1006.6
20260506012505 49 180 0.0 0.0 0.00 0.35 0.00 1006.7
20260506012005 49 180 0.0 0.0 0.00 0.35 0.00 1006.7
20260506011505 49 180 0.0 0.0 0.00 0.35 0.00 1006.7
20260506011005 49 180 0.0 0.0 0.00 0.35 0.00 1006.7
20260506010505 49 180 0.0 0.0 0.00 0.35 0.00 1006.6
20260506010005 49 180 0.0 0.0 0.00 0.35 0.00 1006.7
20260506005505 49 180 0.0 0.0 0.00 0.35 0.00 1006.6
20260506005005 49 180 0.0 0.0 0.00 0.35 0.00 1006.5
20260506004505 49 180 0.0 0.0 0.00 0.35 0.00 1006.5
20260506004005 49 180 0.0 0.0 0.00 0.35 0.00 1006.5
20260506003505 49 180 0.0 0.0 0.00 0.35 0.00 1006.5
20260506003005 49 180 0.0 0.0 0.00 0.35 0.00 1006.6
20260506002505 49 180 0.0 0.0 0.00 0.35 0.00 1006.7
20260506002005 49 180 0.0 0.0 0.00 0.35 0.00 1006.7
20260506001505 50 180 0.0 0.0 0.00 0.35 0.00 1006.7
20260506001005 49 180 0.0 0.0 0.00 0.35 0.00 1006.9
20260506000505 50 180 0.0 0.0 0.00 0.35 0.00 1007.0
20260506000005 50 180 0.0 0.0 0.00 0.35 0.00 1006.9
20260505235505 50 180 0.0 0.0 0.00 0.35 0.00 1007.0
20260505235005 50 180 0.0 0.0 0.00 0.35 0.00 1007.1
20260505234505 50 180 0.0 0.0 0.00 0.35 0.00 1007.2
20260505234005 50 180 0.0 0.0 0.00 0.35 0.00 1007.2
20260505233505 50 180 0.0 0.0 0.00 0.35 0.00 1007.2
20260505233005 50 180 0.0 0.0 0.00 0.35 0.00 1007.2
20260505232505 50 180 0.0 0.0 0.00 0.35 0.00 1007.4
20260505232005 50 180 0.0 0.0 0.00 0.35 0.00 1007.2
20260505231505 50 180 0.0 0.0 0.00 0.35 0.00 1007.2
20260505231005 50 180 0.0 0.0 0.00 0.35 0.00 1007.2
20260505230505 50 180 0.0 0.0 0.00 0.35 0.00 1007.2
20260505230005 50 180 0.0 0.0 0.00 0.35 0.00 1007.2
20260505225505 50 180 0.0 0.0 0.00 0.35 0.00 1007.2
20260505225005 50 180 0.0 0.0 0.00 0.35 0.00 1007.2
20260505224505 50 180 0.0 0.0 0.00 0.35 0.00 1007.2
20260505224005 51 180 0.0 0.0 0.00 0.35 0.00 1007.2
20260505223505 51 180 0.0 0.0 0.00 0.35 0.00 1007.2
20260505223005 51 180 0.0 0.0 0.00 0.35 0.00 1007.2
20260505222505 51 180 0.0 0.0 0.00 0.35 0.00 1007.2
20260505222005 51 180 0.0 0.0 0.00 0.35 0.00 1007.2
20260505221505 51 180 0.0 0.0 0.00 0.35 0.00 1007.2
20260505221005 51 180 0.0 0.0 0.00 0.35 0.00 1007.2
20260505220505 51 180 0.0 0.0 0.00 0.35 0.00 1007.1
20260505220005 51 180 0.0 0.0 0.00 0.35 0.00 1007.1
20260505215505 51 180 0.0 0.0 0.00 0.35 0.00 1007.2
20260505215005 51 180 0.0 0.0 0.00 0.35 0.00 1007.2
20260505214505 51 180 0.0 0.0 0.00 0.35 0.00 1007.2
20260505214005 51 180 0.0 0.0 0.00 0.35 0.00 1007.2
20260505213505 51 180 0.0 0.0 0.00 0.35 0.00 1007.2
20260505213005 51 180 0.0 0.0 0.00 0.35 0.00 1007.4
20260505212505 51 180 0.0 0.0 0.00 0.35 0.00 1007.4
20260505212005 51 180 0.0 0.0 0.00 0.35 0.00 1007.4
20260505211505 51 180 0.0 0.0 0.00 0.35 0.00 1007.5
20260505211005 51 180 0.0 0.0 0.00 0.35 0.00 1007.5
20260505210505 51 180 0.0 0.0 0.00 0.35 0.00 1007.4
20260505210005 51 180 0.0 0.0 0.00 0.35 0.00 1007.4
20260505205505 51 180 0.0 0.0 0.00 0.35 0.00 1007.2
20260505205005 51 180 0.0 0.0 0.00 0.35 0.00 1007.2
20260505204505 51 180 0.0 0.0 0.00 0.35 0.00 1007.2
20260505204005 51 180 0.0 0.0 0.00 0.35 0.00 1007.2
20260505203505 51 180 0.0 0.0 0.00 0.35 0.00 1007.2
20260505203005 51 180 0.0 0.0 0.00 0.35 0.00 1007.2
20260505202505 51 180 0.0 0.0 0.00 0.35 0.00 1007.2
20260505202005 51 180 0.0 0.0 0.00 0.35 0.00 1007.2
20260505201505 51 180 0.0 0.0 0.00 0.35 0.00 1007.1
20260505201005 51 180 0.0 0.0 0.00 0.35 0.00 1007.1
20260505200505 52 180 0.0 0.0 0.00 0.35 0.00 1007.0
20260505200005 51 180 0.0 0.0 0.00 0.35 0.00 1007.0
20260505195505 51 180 0.0 0.0 0.00 0.35 0.00 1006.9
20260505195005 52 180 0.0 0.0 0.00 0.35 0.00 1006.7
20260505194505 51 180 0.0 0.0 0.00 0.35 0.00 1006.7
20260505194005 51 180 0.0 0.0 0.00 0.35 0.00 1006.7
20260505193505 52 180 0.0 0.0 0.00 0.35 0.00 1006.7
20260505193005 52 180 0.0 0.0 0.00 0.35 0.00 1006.7
20260505192505 52 180 0.0 0.0 0.00 0.35 0.00 1006.7
20260505192005 52 180 0.0 0.0 0.00 0.35 0.00 1006.7
20260505191505 52 180 0.0 0.0 0.00 0.35 0.00 1006.7
20260505191005 52 180 0.0 0.0 0.00 0.35 0.00 1006.7
20260505190505 52 180 0.0 0.0 0.00 0.35 0.00 1006.7
20260505190005 52 180 0.0 0.0 0.00 0.35 0.00 1006.7
20260505185505 52 180 0.0 0.0 0.00 0.35 0.00 1006.6